User: anonymous
Location: Columbia
(38.9520°N, 92.3340°W)
Time: 15:18:26
(UTC-05:00)
Language:

Iridium 22 - Orbit

View from above orbital plane
View from above orbital plane
View from above satellite
View from above satellite

Ground track
Ground track

The orbit data is extracted from the following two-line orbital elements,

1 24907U 97043E   14274.48176881  .00000300  00000-0  10023-3 0  9976
2 24907 086.3952 309.7032 0002325 107.7485 027.6269 14.34219677895979
Epoch (UTC): 01 October 2014 11:33:44
Eccentricity: 0.0002325
inclination: 86.3952°
perigee height: 776 km
apogee height: 779 km
right ascension of ascending node: 309.7032°
argument of perigee: 107.7485°
revolutions per day: 14.34219677
mean anomaly at epoch: 27.6269°
orbit number at epoch: 89597

The dashed part of the orbit path shows where the satellite is in the earth's shadow,  

DLR